Location: Cartersville (historical)
(42.9944°N, 93.0869°W)
Time: 06:09:12
(UTC+00:00)

ARIANE 6 FM1 Upper Stage - Pass Details

Date: 16 October 2024
Orbit: 560 x 596 km, 62.0° (Epoch: 04 November)

Event Time Altitude Azimuth Distance (km) Brightness Sun altitude
Rises 00:55:56 0° 331° (NNW) 2,826 6.7 -16.7°
Reaches altitude 10° 00:58:58 10° 353° (N) 1,929 5.5 -17.3°
Maximum altitude 01:01:44 16° 32° (NNE) 1,564 4.6 -17.8°
Enters shadow 01:01:52 16° 34° (NE) 1,565 4.6 -17.8°
